www.pogodaiklimat.ru

Погода и климат >> Архив погоды >> Пакистан >> Ларкана


ПОГОДА в Ларкане

  • Прогноз погоды в Ларкане
  • Монитор погоды в Ларкане

АРХИВ ПОГОДЫ в Ларкане

Время (UTC), дата Ветер
(напр.,м/с)
 
Видим.   Явления Облачность Т
(С)
Тd
(С)
f
(%)
Тe
(С)
Тes
(С)
Комфортность P
(гПа)
Po
(гПа)
Тmin
(С)
Tmax
(С)
R
(мм)
R24
(мм)
S
(см)
09 19.06 ЮВ 1 4000 м 4/3 1000 м
[Sc Ac trans]
+40.0 +24.8 42 +52 +66 опасность
перегрева
997.7 992.1
12 19.06 ЮВ 2 4000 м 3/0
[Ac trans]
+41.0 +25.2 41 +54 +58 опасность
перегрева
996.1 990.1 +41.5
15 19.06 ЮВ 3 4000 м ясно +37.5 +24.2 47 +49 +49 опасность
перегрева
997.5 991.8
18 19.06 ЮВ 3 4000 м ясно +33.0 +23.8 59 +45 +45 опасность
перегрева
998.6 992.8
21 19.06 ЮВ 2 4000 м ясно +30.5 +23.3 65 +41 +41 опасность
перегрева
997.4 991.6
00 20.06 ЮВ 2 4000 м ясно +29.5 +23.0 68 +39 +39 очень
душно
996.6 990.4
03 20.06 ЮВ 1 4000 м ясно +32.5 +24.8 64 +46 +52 опасность
перегрева
998.4 992.3 +29.5
06 20.06 ЮВ 1 4000 м ясно +37.0 +25.2 51 +51 +74 опасность
перегрева
1001.0 995.3
09 20.06 ЮВ 1 4000 м ясно +40.5 +24.6 41 +52 +75 опасность
перегрева
999.2 993.6
12 20.06 ЮВ 2 4000 м 5/3 1200 м
[Sc Ac trans]
+41.5 +25.0 40 +54 +57 опасность
перегрева
997.5 991.5 +42.0
15 20.06 Ю 2 4000 м ясно +37.5 +23.4 45 +48 +48 опасность
перегрева
998.2 992.5
18 20.06 Ю 1 4000 м ясно +34.5 +23.9 54 +46 +46 опасность
перегрева
999.1 993.3
21 20.06 Ю 1 4000 м ясно +31.5 +23.6 63 +43 +43 опасность
перегрева
998.1 992.3
00 21.06 ЮВ 2 4000 м ясно +29.0 +24.0 74 +40 +40 очень
душно
997.2 991.0
03 21.06 Ю 1 4000 м ясно +32.0 +25.0 67 +46 +52 опасность
перегрева
1000.7 994.7 +28.0
06 21.06 Ю 2 4000 м ясно +37.5 +27.4 57 +56 +76 опасность
перегрева
1004.1 998.4
09 21.06 Ю 2 4000 м ясно +40.0 +28.0 51 +59 +78 опасность
перегрева
1001.4 995.7
12 21.06 Ю 2 4000 м ясно +40.0 +28.0 51 +59 +65 опасность
перегрева
999.1 993.1 +40.5
15 21.06 Ю 1 4000 м ясно +37.0 +26.8 56 +54 +54 опасность
перегрева
999.6 993.9
18 21.06 Ю 2 4000 м ясно +34.0 +25.7 62 +49 +49 опасность
перегрева
1000.5 994.7
21 21.06 Ю 1 4000 м ясно +31.0 +24.6 69 +44 +44 опасность
перегрева
999.4 993.6
00 22.06 Ю 2 4000 м ясно +28.5 +24.2 78 +40 +40 очень
душно
998.5 992.3
03 22.06 Ю 2 4000 м ясно +32.0 +25.0 67 +46 +51 опасность
перегрева
1001.2 995.7 +82.0
06 22.06 Ю 1 4000 м ясно +37.0 +26.8 56 +54 +77 опасность
перегрева
1003.6 997.9
09 22.06 ЮВ 2 4000 м ясно +42.5 +20.9 29 +48 +67 опасность
перегрева
999.4 993.8
12 22.06 ЮВ 3 4000 м ясно +42.5 +19.9 28 +48 +52 опасность
перегрева
997.4 991.5 +43.0
15 22.06 ЮВ 2 4000 м ясно +38.0 +19.5 34 +43 +43 опасность
перегрева
998.1 992.4
18 22.06 ЮВ 3 4000 м ясно +36.0 +21.5 43 +44 +44 опасность
перегрева
999.5 993.8
21 22.06 ЮВ 2 4000 м ясно +33.0 +23.0 56 +43 +43 опасность
перегрева
999.1 993.3
00 23.06 ЮВ 1 4000 м ясно +32.5 +24.0 61 +44 +44 опасность
перегрева
999.0 992.9
03 23.06 ЮВ 3 4000 м ясно +34.0 +25.7 62 +49 +54 опасность
перегрева
999.8 993.7 +31.0
06 23.06 ЮВ 2 4000 м ясно +39.0 +26.8 50 +55 +75 опасность
перегрева
1000.4 994.7
09 23.06 Ю 3 4000 м ясно +43.0 +25.2 37 +55 +71 опасность
перегрева
998.3 992.7
12 23.06 Ю 3 4000 м ясно +44.0 +23.0 31 +53 +57 опасность
перегрева
995.1 989.2 +44.5
15 23.06 Ю 2 4000 м ясно +39.0 +21.8 37 +46 +46 опасность
перегрева
995.6 989.9
18 23.06 Ю 2 4000 м ясно +36.0 +23.2 48 +46 +46 опасность
перегрева
998.0 992.3
21 23.06 Ю 2 4000 м ясно +33.5 +23.5 56 +44 +44 опасность
перегрева
997.7 991.9
00 24.06 СВ 5 4000 м ясно +31.0 +23.1 63 +41 +41 опасность
перегрева
1001.3 995.1
03 24.06 СВ 2 4000 м ясно +32.0 +25.0 67 +46 +51 опасность
перегрева
1003.0 996.9 +29.5
06 24.06 СВ 2 4000 м ясно +36.0 +24.0 50 +47 +67 опасность
перегрева
1003.1 997.4
09 24.06 СВ 2 4000 м 4/0
[Ac trans]
+39.0 +25.2 46 +52 +67 опасность
перегрева
1001.0 995.3
12 24.06 СВ 1 4000 м ясно +40.5 +25.4 43 +54 +60 опасность
перегрева
998.9 992.9 +41.0
15 24.06 СВ 1 4000 м 4/0
[Ac trans]
+37.0 +25.2 51 +51 +51 опасность
перегрева
1000.0 994.3
18 24.06 СВ 2 4000 м 5/0
[Ac trans]
+35.0 +26.1 60 +51 +51 опасность
перегрева
1002.0 996.2
21 24.06 СВ 2 4000 м 5/0
[Ac trans]
+32.0 +25.8 70 +47 +47 опасность
перегрева
1001.6 995.8
00 25.06 СВ 3 4000 м 4/0
[Ac trans]
+31.5 +25.2 69 +45 +45 опасность
перегрева
1002.2 996.1
03 25.06 СВ 2 4000 м 3/0
[Ac trans]
+33.0 +26.1 67 +49 +53 опасность
перегрева
1003.7 997.6 +30.5
06 25.06 СВ 2 4000 м ясно +37.5 +27.4 57 +56 +76 опасность
перегрева
1003.8 998.1
09 25.06 СВ 2 4000 м 3/0 1200 м
[Ac cast]
+42.0 +27.2 44 +59 +74 опасность
перегрева
1002.1 996.5
12 25.06 ЮВ 1 4000 м 3/0 1200 м
[Ac cuf]
+42.0 +27.2 44 +59 +64 опасность
перегрева
999.4 993.5 +42.5
15 25.06 Ю 2 4000 м ясно +38.0 +27.2 54 +56 +56 опасность
перегрева
1001.1 995.4
18 25.06 Ю 1 4000 м ясно +35.0 +26.8 63 +53 +53 опасность
перегрева
1002.0 996.2
00 26.06 Ю 2 4000 м 4/0
[Ac trans]
+30.0 +25.1 75 +43 +43 опасность
перегрева
1000.1 994.0
03 26.06 Ю 2 4000 м ясно +34.0 +26.5 65 +51 +56 опасность
перегрева
1001.2 995.2 +29.5
06 26.06 Ю 2 4000 м ясно +41.0 +26.5 44 +56 +76 опасность
перегрева
1001.3 995.7

 

Местоположение метеостанции Ларкана (Пакистан): широта 27.55 долгота 68.17 высота над уровнем моря 52 м.

В архиве по умолчанию представлена погода в Ларкане за последнюю неделю. Архивные данные за месяц целиком и за предыдущие месяцы, начиная с января 2011 года, Вы можете получить, выбрав интересующий диапазон дат из раскрывающегося списка и нажав кнопку "Ввод!".


*Определитесь, кто Вы:
робот инопланетянин человек

Внимание! Время в таблицах - всемирное. Для получения местного времени необходимо прибавить поправку, которая равна 5 ч.

Смотрите также архив погоды в соседних городах и на ближайших метеорологических станциях:

Погода в Мохенджо-Даро (Пакистан) (26 км)
Погода в Суккуре (Пакистан) (62 км)
Погода в Рохри (Пакистан) (73 км)
Погода в Пад Идан (Пакистан) (78 км)
Погода в Джейкобабаде (Пакистан) (88 км)
Погода в Навабшахе (Пакистан) (146 км)
Погода в Хуздаре (Пакистан) (155 км)
Погода в Даду (Пакистан) (168 км)
Погода в Сиби (Пакистан) (224 км)
Погода в Калате (Пакистан) (227 км)

Пояснения к столбцам:

Ветер - указаны скорость ветра в м/с - средняя за 10 мин, порывы в срок и между сроками (в фигурных скобках) и направление, откуда дует ветер: С - северный, СВ - северо-восточный, В - восточный, ЮВ - юго-восточный, Ю - южный, ЮЗ - юго-западный, З - западный, СЗ - северо-западный.
Видимость - горизонтальная дальность видимости в метрах или километрах. При видимости от 1 до 10 км при отсутствии осадков обычно наблюдается дымка, при ухудшении видимости до 1 км и менее - туман. В сухую погоду видимость может ухудшаться дымом, пылью или мглою.
Явления - указаны атмосферные явления, наблюдавшиеся в срок или в последний час перед сроком; фигурными скобками обозначены явления, наблюдавшиеся между сроками (за 1-3 часа до срока); квадратными скобками обозначены град или гололедные отложения с указанием их диаметра в мм.
Облачность - указаны через наклонную черту общая и нижняя облачность в баллах и высота нижней границы облаков в метрах; квадратными скобками обозначены формы облаков: Ci - перистые, Cs - перисто-слоистые, Cc - перисто-кучевые, Ac - высококучевые, As - высокослоистые, Sc - слоисто-кучевые, Ns - слоисто-дождевые, Cu - кучевые, Cb - кучево-дождевые. Подробнее классификацию облаков см. в Атласе облаков (PDF).
T - Температура воздуха - температура, измеренная на высоте 2 м над землей.
Td - Температура точки росы - температура, при понижении до которой содержащийся в воздухе водяной пар достигнет насыщения.
f - Относительная влажность воздуха - влажноcть воздуха, измеренная на высоте 2 м над землей.
Te - Эффективная температура - температура, которую ощущает одетый по сезону человек в тени. Характеристика душности погоды. При расчете учитывается влияние влажности воздуха и скорости ветра на теплоощущения человека.
Tes - Эффективная температура на солнце - температура, которую ощущает человек, с поправкой на солнечный нагрев. Характеристика знойности погоды. Зависит от высоты солнца над горизонтом, облачности и скорости ветра. Ночью, в пасмурную погоду, а также при ветре 12 м/с и более поправка равна нулю.
P - Атмосферное давление - приведенное к уровню моря атмосферное давление.
Po - Атмосферное давление - измеренное на уровне метеостанции атмосферное давление.
Tmin - Минимальная температура - минимум температуры воздуха на высоте 2 м над землей.
Tmax - Максимальная температура - максимум температуры воздуха на высоте 2 м над землей.
R - Количество осадков - Количество выпавших осадков за период времени, мм. При наведении курсора мыши на число - период времени, за который выпало указанное количество осадков.
R24 - Количество осадков - Количество выпавших осадков за 24 часа, мм.
S - Снежный покров - Высота снежного покрова, см. При наведении курсора мыши на число - состояние снежного покрова и степень покрытия местности в баллах.